Hoosier Classic - Training -Hens First

Station: Francisville - T Race

Distance: 40 Miles

Release: 13-Jun-2018 08:15

Weather Release:    Arrival:

Wind at Release:     Wind at Arrival:

Temp at Release: °    Temp at Arrival: °

Lofts: 96

Birds: 323

Clocked: 240

Good Luck to Everyone!
Drops Pos Breeder Pigeon Name Color Sex Ent Arrival Speed To Win Eligible BronzeSilverGoldPlatinum
1 Rpm Syndicate - ON 0127-IF17-BUFF BWF H 1 09:17:52.50 1119.682 00:00:00 Yes
2 Avalos Loft - CA 1602-AU17-TULE PEN H 1 09:17:55.10 1118.911 00:00:03 Yes
3 Andy Skwiat - IN 1405-AU17-HRPC BCH H 1 09:17:55.60 1118.763 00:00:03 Yes
4 Hylek Loft - IN 0301-AU17-MICH BB C 1 09:17:57.10 1118.318 00:00:05 Yes
5 Dickson Loft - OK 7026-AU17-ARKO BB H 1 09:17:58.30 1117.963 00:00:06 Yes
6 Andy Skwiat - IN 0022-AU17-ANDY BB H 2 09:17:58.80 1117.815 00:00:06 Yes
7 Aubrina & Pappy - IN 0907-AU17-VK DCH H 1 09:18:00.50 1117.313 00:00:08 Yes
7 America\'s Dream Loft - IL 0032-AU17-ADL RCH C 1 09:18:00.50 1117.313 00:00:08 Yes
9 Book & Van Wingerden - AZ 7039-AU17-BOOK BB H 1 09:18:01.30 1117.076 00:00:09 Yes
10 Bodzianowski Loft - IL 1600-AU17-WRC BCH C 1 09:18:04.90 1116.014 00:00:12 Yes
11 Andy Skwiat - IN 2969-AU17-APOL BWF H 3 09:18:05.40 1115.866 00:00:13 Yes
12 Stevens Family Loft - IL 0018-AU17-MRPC BCH C 1 09:18:06.40 1115.572 00:00:14 Yes
13 Avalos Loft - CA 1607-AU17-TULE BCH H 2 09:18:08.70 1114.894 00:00:16 Yes
14 Twin Loft - FL 4415-AU17-VK BB H 1 09:18:08.80 1114.865 00:00:16 Yes
15 Family Tradition - MA 0510-AU17-PLY JacCap BB H 1 09:18:12.10 1113.895 00:00:20 Yes
16 Debbie Ganus - IN 0701-AU17-GFL CHWF H 1 09:18:18.40 1112.047 00:00:26 Yes
17 Twin Loft - FL 0596-AU17-BLES BCH H 2 09:18:35.30 1107.121 00:00:43 Yes
18 Bill Kluge - TX 1725-AU17-COLD 30 BCH C 1 09:18:48.50 1103.304 00:00:56 Yes
19 Max - CA 0901-AU17-MAX BB H 1 09:19:11.80 1096.630 00:01:19 Yes
20 Max - CA 0912-AU17-MAX BB H 2 09:19:16.50 1095.294 00:01:24 Yes
21 Aubrina & Pappy - IN 0915-AU17-VK BCH H 2 09:19:17.20 1095.095 00:01:25 Yes
22 Baptista - IL 0014-AU17-BAPT sister#13 BCH H 1 09:19:18.20 1094.811 00:01:26 Yes
23 America\'s Dream Loft - IL 0065-AU17-ADL BWF C 2 09:19:23.50 1093.309 00:01:31 Yes
24 Ganus Family Loft - IN 0750-AU17-GFL BB H 1 09:19:24.00 1093.168 00:01:31 Yes
25 H & H Loft - TX 6924-AU17-VK BCH C 1 09:19:24.50 1093.026 00:01:32 Yes
26 Andy Skwiat - IN 0009-AU17-ANDY Medusa BB H 4 09:19:26.40 1092.489 00:01:34 Yes
27 Book & Van Wingerden - AZ 7000-AU17-BOOK Wacko's Park Place BB H 2 09:19:26.90 1092.348 00:01:34 Yes
28 Andy Skwiat - IN 2942-AU17-APOL DCH H 5 09:19:28.50 1091.896 00:01:36 Yes
29 Ganus Family Loft - IN 0731-AU17-GFL STOCK MARKET BB H 2 09:19:29.40 1091.642 00:01:37 Yes
30 Zapopan-Palomar-Ayon Loft - TX 0435-AU17-PALO BPD H 1 09:19:29.90 1091.501 00:01:37 Yes
31 Elton Dinga - TX 12032-AU17-AA Brother Victor x D Bailey BB H 1 09:19:33.40 1090.515 00:01:41 Yes
32 Sanso Loft - FL 3902-AU17-HRPC BB H 1 09:19:35.90 1089.811 00:01:43 Yes
33 Malloy Flying Loft - TX 0129-AU17-MALL BWF H 1 09:19:36.40 1089.671 00:01:44 Yes
34 Ganus Family Loft - IN 0721-AU17-GFL BB H 3 09:19:38.30 1089.137 00:01:46 Yes
34 Andy Skwiat - IN 0078-CU17-SILV DCH H 6 09:19:38.30 1089.137 00:01:46 Yes
36 3s Lofts - CA 0227-AU17-VIP Who's Your Daddy SILV H 1 09:19:38.90 1088.969 00:01:46 Yes
37 Van Den Bossche Brothers - ME 0552-AU17-WRC The Wizard BSP H 1 09:19:42.00 1088.099 00:01:50 Yes
38 Monsters Of The Midway Loft - IL 3066-AU17-FOYS Unexpected BWF H 1 09:19:42.50 1087.959 00:01:50 Yes
39 Ken Easley & Son Racing - NM 5023-AU17-EASL 4402 x 420 CH H 1 09:19:44.40 1087.427 00:01:52 Yes
40 777-Loft - MN 0206-AU17-SPR It's Crazy.... BB H 1 09:19:46.70 1086.783 00:01:54 Yes
41 Pl Abasolo Family Loft - IL 0816-AU17-LCC Airwolf V BB H 1 09:19:47.70 1086.504 00:01:55 Yes
42 Hillside Loft - ME 4275-AU17-VK Casanova BB H 1 09:19:50.50 1085.722 00:01:58 Yes
43 Andy Skwiat - IN 17117-AU17-TWOB BSWF C 7 09:19:51.40 1085.471 00:01:59 Yes
44 K T Loft - IN 0200-AU17-KT BCH H 1 09:19:51.70 1085.387 00:01:59 Yes
45 Andy Skwiat - IN 0006-AU17-ANDY BB H 8 09:19:53.10 1084.997 00:02:01 Yes
46 Aztec Loft - DE 0274-AU17-AZTE Lola BSP H 1 09:19:54.00 1084.746 00:02:01 Yes
47 Jones Family Loft - TX 0742-AU17-KJ BCH H 1 09:19:54.50 1084.606 00:02:02 Yes
48 Sandstrom Brothers Loft - MN 0733-AU17-SBL CHWF H 1 09:19:57.60 1083.744 00:02:05 Yes
49 A P C Loft - TX 17235-AU17-APC BB H 1 09:19:57.90 1083.660 00:02:05 Yes
50 Mesopotamia Loft - MN 5332-AU17-VK BWF H 1 09:20:02.30 1082.439 00:02:10 Missing
51 Gibara Loft - FL 2624-AU17-HRPC BCH H 1 09:20:03.90 1081.995 00:02:11 Yes
52 Hylek Loft - IN 0305-AU17-MICH BB C 2 09:20:05.80 1081.469 00:02:13 Yes
53 Van Den Bossche Brothers - ME 8827-AU17-KV Lulu BB H 2 09:20:10.80 1080.086 00:02:18 Yes
54 Dos Hermano & Yosellaj Loft - FL 4413-AU17-HRPC !My Dream! BB C 1 09:20:11.20 1079.975 00:02:19 Yes
55 Dos Hermano & Yosellaj Loft - FL 4403-AU17-HRPC BBCH H 2 09:20:14.80 1078.982 00:02:22 Yes
56 Alca Girls - IL 0875-AU17-RRV Midnight Rambler BCH C 1 09:20:15.90 1078.679 00:02:23 Yes
57 Sanso Loft - FL 0296-AU17-RAND Spitfire BB H 2 09:20:23.50 1076.590 00:02:31 Yes
58 Hillside Loft - ME 17049-AU17-AGD Oumuamua BB C 2 09:20:25.60 1076.014 00:02:33 Yes
59 Ganus Family Loft - IN 0702-AU17-GFL GOLDEN DRAGON CHWF H 4 09:20:36.30 1073.089 00:02:44 Yes
60 Bird Dog Syndicate 2 - CA 0009-AU17-BURG CHWF H 1 09:20:41.10 1071.782 00:02:49 Yes
61 Bird Dog Syndicate 2 - CA 0025-AU17-BURG BB H 2 09:20:50.20 1069.313 00:02:58 Yes
62 Hylek Loft - IN 0319-AU17-MICH BSP H 3 09:20:55.00 1068.015 00:03:03 Yes
63 H & H Loft - TX 6912-AU17-VK BCH H 2 09:22:05.70 1049.259 00:04:13 Yes
64 Dan & Pete - IL 0010-AU17-BFS BB H 1 09:23:02.20 1034.736 00:05:10 Yes
65 Andy Skwiat - IN 4452-AU17-VK BB H 9 09:23:13.00 1032.006 00:05:20 Yes
66 Debbie Ganus - IN 0323-AU17-GFL BB H 2 09:23:18.90 1030.520 00:05:26 Yes
67 America\'s Dream Loft - IL 0068-AU17-ADL BB C 3 09:23:23.40 1029.390 00:05:31 Yes
68 Orozco's Loft - MI 0910-AU17-MEX CHPD H 1 09:23:24.30 1029.165 00:05:32 Yes
69 F T L Loft - IN 13801-AU17-AA BB H 1 09:23:28.40 1028.137 00:05:36 Yes
70 Bill Kluge - TX 1734-AU17-COLD 10 BB C 2 09:23:29.80 1027.787 00:05:37 Yes
71 Bodzianowski Loft - IL 1599-AU17-WRC CHOC C 2 09:23:35.60 1026.339 00:05:43 Yes
72 Daehn/Miele - FL 0203-AU17-NWFI 973 X 257 BBWF H 1 09:24:14.90 1016.631 00:06:22 Yes
73 Master One - CA 70531-AU17-MAN BCH H 1 09:24:40.40 1010.430 00:06:48 Yes
74 Aztec Loft - DE 0267-AU17-AZTE Diva BWF H 2 09:24:41.70 1010.116 00:06:49 Yes
75 Master One - CA 0038-AU17-MAST BB H 2 09:24:42.70 1009.874 00:06:50 Yes
76 Andy Skwiat - IN 0034-IF17-MDL Going the distance BB C 10 09:24:44.10 1009.536 00:06:52 Yes
77 Tegan Bogoslawski - IN 0127-AU17-ANDY BB C 1 09:24:45.00 1009.319 00:06:53 Yes
78 Andy Skwiat - IN 0002-AU17-GARY BBPD H 11 09:24:47.20 1008.789 00:06:55 Yes
79 Alca Girls - IL 62000-AU17-ARPU Mo BB H 2 09:24:48.00 1008.596 00:06:56 Yes
80 Andy Skwiat - IN 0015-AU17-ANDY DCSP C 12 09:24:50.80 1007.922 00:06:58 Yes
81 Andy Skwiat - IN 0145-AU17-OAKS BCH H 13 09:24:50.90 1007.898 00:06:58 Yes
82 Skwiat/Braddy Syndicate - IN 0032-AU17-XLOF 100K Cock BPD C 1 09:24:51.40 1007.778 00:06:59 Yes
83 Alca Girls - IL 0085-AU17-BEKO CLOVER BBPD C 3 09:24:52.20 1007.586 00:07:00 Yes
84 Andy Skwiat - IN 0834-AU17-JRL BB H 14 09:24:57.50 1006.313 00:07:05 Yes
85 Van Den Bossche Brothers - ME 1004-AU17-FOYS Range Finder CHPD H 3 09:24:58.00 1006.193 00:07:06 Yes
86 Mc Laughlin Lofts - MA 1023-AU17-MCLO BCH H 1 09:24:59.20 1005.906 00:07:07 Yes
87 H & H Loft - TX 6903-AU17-VK BB C 3 09:25:00.00 1005.714 00:07:08 Yes
88 Jones Family Loft - TX 7197-AU17-JFL BCH H 2 09:25:00.50 1005.595 00:07:08 Yes
88 Mc Laughlin Lofts - MA 1008-AU17-MCLO BB H 2 09:25:00.50 1005.595 00:07:08 Yes
90 A F L - GA 0143-AU17-AFL ,,BLUELLA'' BB H 1 09:25:04.10 1004.733 00:07:12 Yes
91 K T Loft - IN 0242-AU17-KT BB H 2 09:25:05.20 1004.471 00:07:13 Yes
92 F T L Loft - IN 0031-AU17-HUTC BB H 2 09:25:05.30 1004.447 00:07:13 Yes
93 F T L Loft - IN 0028-AU17-HUTC CHSP H 3 09:25:05.80 1004.327 00:07:13 Yes
94 H & H Loft - TX 6918-AU17-VK BB C 4 09:25:06.30 1004.208 00:07:14 Yes
95 Andy Skwiat - IN 0029-AU17-ANDY BSP H 15 09:25:09.20 1003.516 00:07:17 Yes
96 H & H Loft - TX 6907-AU17-VK BCH C 5 09:25:15.20 1002.088 00:07:23 Yes
97 H & H Loft - TX 6914-AU17-VK BWF C 6 09:25:17.40 1001.565 00:07:25 Yes
98 Orozco's Loft - MI 0017-AU17-OROZ BB C 2 09:25:17.90 1001.446 00:07:25 Yes
99 Dan & Pete - IL 0001-AU17-BFS BB H 2 09:25:21.50 1000.592 00:07:29 Yes
100 Tegan Bogoslawski - IN 0065-AU17-ANDY BB H 2 09:25:22.70 1000.308 00:07:30 Yes

There are 323 bird records

Note: These Race Results are unofficial and subject to change until verified by the Race Committee and declared final.